Time,TemperatureF,DewpointF,PressureIn,WindDirection,WindDirectionDegrees,WindSpeedMPH,WindSpeedGustMPH,Humidity,HourlyPrecipIn,Conditions,Clouds,dailyrainin,SoftwareType,DateUTC
2013-08-21 00:00:00,71.7,60.2,30.00,South,180,0.0,0.0,67,0.00,,,0.00,WUHU216HW,2013-08-20 22:00:00,
2013-08-21 00:05:00,71.6,60.0,30.00,South,180,0.0,0.0,67,0.00,,,0.00,WUHU216HW,2013-08-20 22:05:00,
2013-08-21 00:10:00,71.4,59.8,30.00,ESE,113,0.0,0.0,67,0.00,,,0.00,WUHU216HW,2013-08-20 22:10:00,
2013-08-21 00:17:00,71.0,59.5,30.00,SE,135,0.0,0.0,67,0.00,,,0.00,WUHU216HW,2013-08-20 22:17:00,
2013-08-21 00:22:00,70.8,59.7,30.00,East,90,0.0,0.0,68,0.00,,,0.00,WUHU216HW,2013-08-20 22:22:00,
2013-08-21 00:27:00,70.8,59.7,30.00,ENE,68,0.0,0.0,68,0.00,,,0.00,WUHU216HW,2013-08-20 22:27:00,
2013-08-21 00:32:00,70.5,59.4,30.00,ESE,113,0.0,0.0,68,0.00,,,0.00,WUHU216HW,2013-08-20 22:32:00,
2013-08-21 00:37:00,70.3,59.6,30.00,SE,135,0.0,0.0,69,0.00,,,0.00,WUHU216HW,2013-08-20 22:37:00,
2013-08-21 00:42:00,70.1,59.4,30.00,ENE,68,0.0,0.0,69,0.00,,,0.00,WUHU216HW,2013-08-20 22:42:00,
2013-08-21 00:47:00,70.1,59.2,30.00,North,0,0.0,0.0,69,0.00,,,0.00,WUHU216HW,2013-08-20 22:47:00,
2013-08-21 00:52:00,69.9,59.2,30.00,ENE,68,0.0,0.0,69,0.00,,,0.00,WUHU216HW,2013-08-20 22:52:00,
2013-08-21 00:57:00,69.8,59.1,30.01,East,90,0.0,0.0,69,0.00,,,0.00,WUHU216HW,2013-08-20 22:57:00,
2013-08-21 01:02:00,69.6,59.3,30.01,NE,45,0.0,0.0,70,0.00,,,0.00,WUHU216HW,2013-08-20 23:02:00,
2013-08-21 01:07:00,69.6,59.2,30.01,SE,135,0.0,0.0,70,0.00,,,0.00,WUHU216HW,2013-08-20 23:07:00,
2013-08-21 01:12:00,69.6,59.3,30.01,SSW,203,0.0,0.0,70,0.00,,,0.00,WUHU216HW,2013-08-20 23:12:00,
2013-08-21 01:17:00,69.6,59.3,30.01,North,0,0.0,0.0,70,0.00,,,0.00,WUHU216HW,2013-08-20 23:17:00,
2013-08-21 01:22:00,69.9,59.2,30.01,East,90,0.0,0.0,69,0.00,,,0.00,WUHU216HW,2013-08-20 23:22:00,
2013-08-21 01:27:00,69.9,59.5,30.01,ENE,68,0.0,0.0,70,0.00,,,0.00,WUHU216HW,2013-08-20 23:27:00,
2013-08-21 01:32:00,69.6,58.9,30.01,North,0,0.0,0.0,69,0.00,,,0.00,WUHU216HW,2013-08-20 23:32:00,
2013-08-21 01:38:00,69.6,59.3,30.01,ESE,113,0.0,0.0,70,0.00,,,0.00,WUHU216HW,2013-08-20 23:38:00,
2013-08-21 01:43:00,69.6,58.9,30.01,North,0,0.0,0.0,69,0.00,,,0.00,WUHU216HW,2013-08-20 23:43:00,
2013-08-21 01:48:00,69.6,59.3,30.01,ENE,68,0.0,0.0,70,0.00,,,0.00,WUHU216HW,2013-08-20 23:48:00,
2013-08-21 01:53:00,69.4,59.2,30.01,NNE,23,0.0,0.0,70,0.00,,,0.00,WUHU216HW,2013-08-20 23:53:00,
2013-08-21 01:58:00,69.0,59.2,30.02,NNE,23,0.0,0.0,71,0.00,,,0.00,WUHU216HW,2013-08-20 23:58:00,
2013-08-21 02:03:00,69.0,59.2,30.01,NNE,23,0.0,0.0,71,0.00,,,0.00,WUHU216HW,2013-08-21 00:03:00,
2013-08-21 02:08:00,68.5,59.7,30.01,ENE,68,0.0,0.0,73,0.00,,,0.00,WUHU216HW,2013-08-21 00:08:00,
2013-08-21 02:13:00,68.1,59.2,30.02,NE,45,0.0,0.0,73,0.00,,,0.00,WUHU216HW,2013-08-21 00:13:00,
2013-08-21 02:18:00,67.8,59.2,30.01,ESE,113,0.0,0.0,74,0.00,,,0.00,WUHU216HW,2013-08-21 00:18:00,
2013-08-21 02:23:00,67.8,59.2,30.01,SSE,158,0.0,0.0,74,0.00,,,0.00,WUHU216HW,2013-08-21 00:23:00,
2013-08-21 02:28:00,67.8,59.2,30.01,ESE,113,0.0,0.0,74,0.00,,,0.00,WUHU216HW,2013-08-21 00:28:00,
2013-08-21 02:33:00,68.1,59.2,30.01,ESE,113,0.0,0.0,73,0.00,,,0.00,WUHU216HW,2013-08-21 00:33:00,
2013-08-21 02:38:00,68.3,59.3,30.01,South,180,0.0,0.0,73,0.00,,,0.00,WUHU216HW,2013-08-21 00:38:00,
2013-08-21 02:43:00,68.7,59.3,30.01,ENE,68,0.0,0.0,72,0.00,,,0.00,WUHU216HW,2013-08-21 00:43:00,
2013-08-21 02:48:00,68.9,59.4,30.01,WSW,248,0.0,0.0,72,0.00,,,0.00,WUHU216HW,2013-08-21 00:48:00,
2013-08-21 02:53:00,69.0,59.6,30.00,SSE,158,2.9,2.9,72,0.00,,,0.00,WUHU216HW,2013-08-21 00:53:00,
2013-08-21 02:58:00,69.0,59.6,30.01,SW,225,0.0,2.9,72,0.00,,,0.00,WUHU216HW,2013-08-21 00:58:00,
2013-08-21 03:03:00,69.0,59.6,30.00,SW,225,4.9,4.9,72,0.00,,,0.00,WUHU216HW,2013-08-21 01:03:00,
2013-08-21 03:08:00,69.4,59.5,30.01,WSW,248,4.0,4.9,71,0.00,,,0.00,WUHU216HW,2013-08-21 01:08:00,
2013-08-21 03:13:00,69.4,59.5,30.01,SSE,158,4.4,4.4,71,0.00,,,0.00,WUHU216HW,2013-08-21 01:13:00,
2013-08-21 03:18:00,69.6,59.7,30.01,East,90,0.0,4.4,71,0.00,,,0.00,WUHU216HW,2013-08-21 01:18:00,
2013-08-21 03:19:00,69.6,59.7,30.01,ESE,113,0.0,4.4,71,0.00,,,0.00,WUHU216HW,2013-08-21 01:19:00,
2013-08-21 03:24:00,69.8,59.5,30.01,SSW,207,2.7,3.1,70,0.00,,,0.00,WUHU216HW,2013-08-21 01:24:00,
2013-08-21 03:29:00,69.8,59.1,30.01,SSE,158,0.0,7.8,69,0.00,,,0.00,WUHU216HW,2013-08-21 01:29:00,
2013-08-21 03:34:00,69.8,59.1,30.01,WNW,293,0.0,7.8,69,0.00,,,0.00,WUHU216HW,2013-08-21 01:34:00,
2013-08-21 03:39:00,69.6,58.9,30.01,NNE,23,0.0,2.4,69,0.00,,,0.00,WUHU216HW,2013-08-21 01:39:00,
2013-08-21 03:45:00,69.6,58.9,30.01,WNW,293,0.0,0.0,69,0.00,,,0.00,WUHU216HW,2013-08-21 01:45:00,
2013-08-21 03:50:00,69.6,59.3,30.00,WNW,293,0.0,0.0,70,0.00,,,0.00,WUHU216HW,2013-08-21 01:50:00,
2013-08-21 03:55:00,69.4,59.2,30.00,SW,225,0.0,0.0,70,0.00,,,0.00,WUHU216HW,2013-08-21 01:55:00,
2013-08-21 04:00:00,69.2,59.0,29.99,NNE,23,0.0,0.0,70,0.00,,,0.00,WUHU216HW,2013-08-21 02:00:00,
2013-08-21 04:05:00,69.2,58.8,29.99,SW,225,0.0,0.0,70,0.00,,,0.00,WUHU216HW,2013-08-21 02:05:00,
2013-08-21 04:10:00,69.6,59.3,29.99,North,0,0.0,2.4,70,0.00,,,0.00,WUHU216HW,2013-08-21 02:10:00,
2013-08-21 04:15:00,69.4,59.2,29.99,SW,225,1.5,2.4,70,0.00,,,0.00,WUHU216HW,2013-08-21 02:15:00,
2013-08-21 04:20:00,69.0,58.8,29.99,West,270,0.0,2.4,70,0.00,,,0.00,WUHU216HW,2013-08-21 02:20:00,
2013-08-21 04:25:00,69.0,58.8,29.99,WSW,248,0.0,0.0,70,0.00,,,0.00,WUHU216HW,2013-08-21 02:25:00,
2013-08-21 04:30:00,68.9,58.7,30.00,SSW,203,0.0,0.0,70,0.00,,,0.00,WUHU216HW,2013-08-21 02:30:00,
2013-08-21 04:35:00,68.7,58.5,30.00,SW,225,0.8,2.9,70,0.00,,,0.00,WUHU216HW,2013-08-21 02:35:00,
2013-08-21 04:40:00,68.5,58.7,30.00,WSW,248,0.0,2.9,71,0.00,,,0.00,WUHU216HW,2013-08-21 02:40:00,
2013-08-21 04:45:00,68.5,58.4,30.00,West,270,3.5,3.5,70,0.00,,,0.00,WUHU216HW,2013-08-21 02:45:00,
2013-08-21 04:50:00,68.5,58.7,30.00,SSW,203,2.6,4.0,71,0.00,,,0.00,WUHU216HW,2013-08-21 02:50:00,
2013-08-21 04:55:00,68.5,58.4,30.00,East,90,2.0,4.0,70,0.00,,,0.00,WUHU216HW,2013-08-21 02:55:00,
2013-08-21 05:00:00,68.9,58.7,30.00,WNW,293,0.0,2.9,70,0.00,,,0.00,WUHU216HW,2013-08-21 03:00:00,
2013-08-21 05:05:00,68.9,58.7,30.00,North,0,0.0,2.9,70,0.00,,,0.00,WUHU216HW,2013-08-21 03:05:00,
2013-08-21 05:10:00,68.9,58.7,30.00,West,270,0.0,2.9,70,0.00,,,0.00,WUHU216HW,2013-08-21 03:10:00,
2013-08-21 05:15:00,68.9,58.7,30.00,SW,225,1.3,3.8,70,0.00,,,0.00,WUHU216HW,2013-08-21 03:15:00,
2013-08-21 05:20:00,68.7,58.5,30.00,SSW,203,2.2,3.8,70,0.00,,,0.00,WUHU216HW,2013-08-21 03:20:00,
2013-08-21 05:25:00,68.9,58.7,30.00,WSW,248,0.0,3.5,70,0.00,,,0.00,WUHU216HW,2013-08-21 03:25:00,
2013-08-21 05:30:00,68.9,58.7,30.00,East,90,0.0,3.5,70,0.00,,,0.00,WUHU216HW,2013-08-21 03:30:00,
2013-08-21 05:35:00,68.9,58.7,30.01,North,0,0.0,2.2,70,0.00,,,0.00,WUHU216HW,2013-08-21 03:35:00,
2013-08-21 05:39:00,68.7,58.5,30.00,NW,315,3.1,3.1,70,0.00,,,0.00,WUHU216HW,2013-08-21 03:39:00,
2013-08-21 05:45:00,68.9,58.7,30.00,SW,225,3.8,3.8,70,0.00,,,0.00,WUHU216HW,2013-08-21 03:45:00,
2013-08-21 05:50:00,69.4,58.7,30.00,North,0,1.7,4.2,69,0.00,,,0.00,WUHU216HW,2013-08-21 03:50:00,
2013-08-21 05:55:00,69.4,58.3,30.01,East,90,1.5,4.2,68,0.00,,,0.00,WUHU216HW,2013-08-21 03:55:00,
2013-08-21 06:00:00,69.9,58.4,30.01,WSW,248,0.0,3.1,67,0.00,,,0.00,WUHU216HW,2013-08-21 04:00:00,
2013-08-21 06:01:00,70.3,58.8,30.00,SW,225,0.0,3.1,67,0.00,,,0.00,WUHU216HW,2013-08-21 04:01:00,
2013-08-21 06:06:00,70.1,58.2,30.01,South,180,2.0,7.8,66,0.00,,,0.00,WUHU216HW,2013-08-21 04:06:00,
2013-08-21 06:11:00,70.1,58.2,30.01,NE,45,1.1,7.8,66,0.00,,,0.00,WUHU216HW,2013-08-21 04:11:00,
2013-08-21 06:16:00,70.3,58.3,30.02,North,0,0.0,4.0,66,0.00,,,0.00,WUHU216HW,2013-08-21 04:16:00,
2013-08-21 06:21:00,71.7,59.5,30.02,East,90,6.4,8.9,65,0.00,,,0.00,WUHU216HW,2013-08-21 04:21:00,
2013-08-21 06:26:00,73.2,60.0,30.01,ESE,120,12.1,16.1,64,0.00,,,0.00,WUHU216HW,2013-08-21 04:26:00,
2013-08-21 06:31:00,73.4,59.9,30.02,East,90,3.5,16.1,63,0.00,,,0.00,WUHU216HW,2013-08-21 04:31:00,
2013-08-21 06:36:00,73.5,60.1,30.02,ESE,105,8.9,13.1,63,0.00,,,0.00,WUHU216HW,2013-08-21 04:36:00,
2013-08-21 06:41:00,73.5,60.1,30.02,ENE,78,13.3,14.3,63,0.00,,,0.00,WUHU216HW,2013-08-21 04:41:00,
2013-08-21 06:46:00,73.5,59.8,30.03,ENE,68,3.8,14.3,62,0.00,,,0.00,WUHU216HW,2013-08-21 04:46:00,
2013-08-21 06:51:00,73.7,59.8,30.04,ESE,115,5.1,6.9,62,0.00,,,0.00,WUHU216HW,2013-08-21 04:51:00,
2013-08-21 06:56:00,73.9,60.0,30.04,South,180,5.5,5.8,62,0.00,,,0.00,WUHU216HW,2013-08-21 04:56:00,
2013-08-21 07:01:00,73.5,59.2,30.04,SE,135,1.5,5.8,61,0.00,,,0.00,WUHU216HW,2013-08-21 05:01:00,
2013-08-21 07:06:00,73.5,58.8,30.04,SE,135,3.5,3.5,60,0.00,,,0.00,WUHU216HW,2013-08-21 05:06:00,
2013-08-21 07:11:00,73.5,59.2,30.04,ENE,68,7.8,7.8,61,0.00,,,0.00,WUHU216HW,2013-08-21 05:11:00,
2013-08-21 07:16:00,73.7,59.8,30.04,SE,135,10.7,13.8,62,0.00,,,0.00,WUHU216HW,2013-08-21 05:16:00,
2013-08-21 07:21:00,73.9,60.0,30.04,East,90,10.5,13.8,62,0.00,,,0.00,WUHU216HW,2013-08-21 05:21:00,
2013-08-21 07:26:00,73.7,60.3,30.04,ENE,75,6.4,12.3,63,0.00,,,0.00,WUHU216HW,2013-08-21 05:26:00,
2013-08-21 07:31:00,73.4,60.4,30.04,ESE,105,11.1,20.5,64,0.00,,,0.00,WUHU216HW,2013-08-21 05:31:00,
2013-08-21 07:36:00,73.4,60.4,30.04,East,85,13.1,20.5,64,0.00,,,0.00,WUHU216HW,2013-08-21 05:36:00,
2013-08-21 07:41:00,73.5,60.6,30.04,NE,45,7.8,15.6,64,0.00,,,0.00,WUHU216HW,2013-08-21 05:41:00,
2013-08-21 07:46:00,73.9,60.5,30.04,East,90,5.1,8.9,63,0.00,,,0.00,WUHU216HW,2013-08-21 05:46:00,
2013-08-21 07:51:00,73.9,60.5,30.04,ESE,113,6.9,8.9,63,0.00,,,0.00,WUHU216HW,2013-08-21 05:51:00,
2013-08-21 07:56:00,73.9,60.9,30.04,North,0,3.5,6.9,64,0.00,,,0.00,WUHU216HW,2013-08-21 05:56:00,
2013-08-21 08:01:00,73.7,60.7,30.03,ENE,68,6.8,9.6,64,0.00,,,0.00,WUHU216HW,2013-08-21 06:01:00,
2013-08-21 08:06:00,73.7,60.6,30.04,NNE,23,2.0,9.6,64,0.00,,,0.00,WUHU216HW,2013-08-21 06:06:00,
2013-08-21 08:11:00,73.7,60.7,30.04,NE,49,6.3,8.9,64,0.00,,,0.00,WUHU216HW,2013-08-21 06:11:00,
2013-08-21 08:16:00,73.9,60.9,30.04,ENE,68,14.0,14.0,64,0.00,,,0.00,WUHU216HW,2013-08-21 06:16:00,
2013-08-21 08:21:00,73.9,60.5,30.03,East,90,4.6,14.0,63,0.00,,,0.00,WUHU216HW,2013-08-21 06:21:00,
2013-08-21 08:26:00,74.4,60.5,30.03,ESE,113,9.6,11.1,62,0.00,,,0.00,WUHU216HW,2013-08-21 06:26:00,
2013-08-21 08:31:00,75.0,60.8,30.03,SE,133,2.5,10.2,61,0.00,,,0.00,WUHU216HW,2013-08-21 06:31:00,
2013-08-21 08:36:00,75.3,61.0,30.02,SE,135,3.8,10.2,60,0.00,,,0.00,WUHU216HW,2013-08-21 06:36:00,
2013-08-21 08:41:00,76.1,61.2,30.02,SSE,158,1.5,4.6,60,0.00,,,0.00,WUHU216HW,2013-08-21 06:41:00,
2013-08-21 08:46:00,76.2,60.4,30.02,SSE,151,3.3,5.3,58,0.00,,,0.00,WUHU216HW,2013-08-21 06:46:00,
2013-08-21 08:51:00,76.2,60.9,30.02,ENE,68,2.4,8.9,59,0.00,,,0.00,WUHU216HW,2013-08-21 06:51:00,
2013-08-21 08:56:00,76.8,60.8,30.02,NE,44,4.5,8.9,58,0.00,,,0.00,WUHU216HW,2013-08-21 06:56:00,
2013-08-21 09:01:00,76.8,61.3,30.01,North,0,9.4,11.4,59,0.00,,,0.00,WUHU216HW,2013-08-21 07:01:00,
2013-08-21 09:07:00,76.6,61.2,30.01,NNE,16,1.8,11.4,59,0.00,,,0.00,WUHU216HW,2013-08-21 07:07:00,
2013-08-21 09:12:00,76.6,60.7,30.02,NE,36,5.7,8.7,58,0.00,,,0.00,WUHU216HW,2013-08-21 07:12:00,
2013-08-21 09:17:00,76.2,60.9,30.02,North,0,7.3,7.3,59,0.00,,,0.00,WUHU216HW,2013-08-21 07:17:00,
2013-08-21 09:22:00,76.1,61.4,30.01,WNW,293,3.5,7.3,59,0.00,,,0.00,WUHU216HW,2013-08-21 07:22:00,
2013-08-21 09:27:00,76.2,60.9,30.02,NNW,338,3.1,6.9,59,0.00,,,0.00,WUHU216HW,2013-08-21 07:27:00,
2013-08-21 09:32:00,76.8,61.3,30.02,NNE,23,1.5,3.5,59,0.00,,,0.00,WUHU216HW,2013-08-21 07:32:00,
2013-08-21 09:37:00,77.3,61.3,30.02,NNW,338,2.6,3.8,58,0.00,,,0.00,WUHU216HW,2013-08-21 07:37:00,
2013-08-21 09:42:00,78.0,61.4,30.02,SSE,148,5.4,11.8,56,0.00,,,0.00,WUHU216HW,2013-08-21 07:42:00,
2013-08-21 09:47:00,78.9,60.8,30.02,ESE,113,15.2,15.2,54,0.00,,,0.00,WUHU216HW,2013-08-21 07:47:00,
2013-08-21 09:52:00,79.3,61.2,30.02,South,180,10.5,15.2,54,0.00,,,0.00,WUHU216HW,2013-08-21 07:52:00,
2013-08-21 09:57:00,79.3,61.0,30.02,ESE,121,12.5,15.6,54,0.00,,,0.00,WUHU216HW,2013-08-21 07:57:00,
2013-08-21 10:02:00,79.3,61.2,30.02,East,90,6.0,15.6,54,0.00,,,0.00,WUHU216HW,2013-08-21 08:02:00,
2013-08-21 10:07:00,78.8,60.7,30.02,East,94,9.6,12.9,54,0.00,,,0.00,WUHU216HW,2013-08-21 08:07:00,
2013-08-21 10:12:00,78.6,61.0,30.02,ESE,113,13.1,13.1,55,0.00,,,0.00,WUHU216HW,2013-08-21 08:12:00,
2013-08-21 10:17:00,78.6,61.0,30.02,ENE,78,3.4,14.0,55,0.00,,,0.00,WUHU216HW,2013-08-21 08:17:00,
2013-08-21 10:22:00,78.4,61.0,30.01,ESE,113,16.1,17.2,55,0.00,,,0.00,WUHU216HW,2013-08-21 08:22:00,
2013-08-21 10:27:00,78.6,61.0,30.02,ESE,113,10.7,17.2,55,0.00,,,0.00,WUHU216HW,2013-08-21 08:27:00,
2013-08-21 10:32:00,78.9,60.8,30.02,ESE,113,9.6,11.1,54,0.00,,,0.00,WUHU216HW,2013-08-21 08:32:00,
2013-08-21 10:37:00,79.1,61.0,30.02,ENE,68,15.2,15.2,54,0.00,,,0.00,WUHU216HW,2013-08-21 08:37:00,
2013-08-21 10:42:00,79.3,61.2,30.02,NE,55,7.8,15.2,54,0.00,,,0.00,WUHU216HW,2013-08-21 08:42:00,
2013-08-21 10:47:00,79.3,61.2,30.02,ESE,113,14.3,14.7,54,0.00,,,0.00,WUHU216HW,2013-08-21 08:47:00,
2013-08-21 10:52:00,79.3,61.7,30.02,ESE,113,10.1,14.7,55,0.00,,,0.00,WUHU216HW,2013-08-21 08:52:00,
2013-08-21 10:57:00,79.7,61.5,30.02,NE,52,9.0,14.7,54,0.00,,,0.00,WUHU216HW,2013-08-21 08:57:00,
2013-08-21 11:02:00,79.8,61.7,30.02,SE,135,4.6,12.3,54,0.00,,,0.00,WUHU216HW,2013-08-21 09:02:00,
2013-08-21 11:07:00,80.2,61.5,30.02,SE,135,15.8,15.8,53,0.00,,,0.00,WUHU216HW,2013-08-21 09:07:00,
2013-08-21 11:12:00,80.7,61.9,30.02,South,180,10.7,15.8,53,0.00,,,0.00,WUHU216HW,2013-08-21 09:12:00,
2013-08-21 11:17:00,81.1,61.7,30.02,ESE,113,6.4,11.8,52,0.00,,,0.00,WUHU216HW,2013-08-21 09:17:00,
2013-08-21 11:22:00,80.9,62.1,30.02,East,88,6.8,14.5,53,0.00,,,0.00,WUHU216HW,2013-08-21 09:22:00,
2013-08-21 11:27:00,80.4,61.6,30.02,ESE,120,13.3,17.8,53,0.00,,,0.00,WUHU216HW,2013-08-21 09:27:00,
2013-08-21 11:32:00,80.6,62.3,30.02,East,90,6.5,17.8,54,0.00,,,0.00,WUHU216HW,2013-08-21 09:32:00,
2013-08-21 11:37:00,80.7,61.9,30.02,ENE,74,8.4,13.6,53,0.00,,,0.00,WUHU216HW,2013-08-21 09:37:00,
2013-08-21 11:42:00,81.6,62.2,30.02,ESE,113,15.8,18.5,52,0.00,,,0.00,WUHU216HW,2013-08-21 09:42:00,
2013-08-21 11:47:00,82.0,62.6,30.02,East,90,18.3,18.5,51,0.00,,,0.00,WUHU216HW,2013-08-21 09:47:00,
2013-08-21 11:52:00,82.2,62.2,30.02,NE,54,8.8,18.3,51,0.00,,,0.00,WUHU216HW,2013-08-21 09:52:00,
2013-08-21 11:57:00,82.5,62.0,30.02,East,90,11.8,12.3,50,0.00,,,0.00,WUHU216HW,2013-08-21 09:57:00,
2013-08-21 12:03:00,82.5,62.5,30.03,SE,135,11.6,17.4,51,0.00,,,0.00,WUHU216HW,2013-08-21 10:03:00,
2013-08-21 12:08:00,82.7,62.7,30.03,ESE,106,14.3,18.1,51,0.00,,,0.00,WUHU216HW,2013-08-21 10:08:00,
2013-08-21 12:13:00,83.1,62.6,30.02,ESE,120,11.7,18.1,50,0.00,,,0.00,WUHU216HW,2013-08-21 10:13:00,
2013-08-21 12:18:00,83.3,62.7,30.02,NNE,23,5.3,18.1,50,0.00,,,0.00,WUHU216HW,2013-08-21 10:18:00,
2013-08-21 12:23:00,83.6,63.1,30.02,ESE,116,4.6,18.1,50,0.00,,,0.00,WUHU216HW,2013-08-21 10:23:00,
2013-08-21 12:28:00,83.8,62.6,30.02,ENE,65,7.2,14.3,49,0.00,,,0.00,WUHU216HW,2013-08-21 10:28:00,
2013-08-21 12:33:00,83.4,62.3,30.02,SE,134,7.8,14.3,49,0.00,,,0.00,WUHU216HW,2013-08-21 10:33:00,
2013-08-21 12:38:00,83.8,62.6,30.02,ESE,106,11.6,16.3,49,0.00,,,0.00,WUHU216HW,2013-08-21 10:38:00,
2013-08-21 12:43:00,84.0,63.5,30.02,ENE,68,7.1,16.3,50,0.00,,,0.00,WUHU216HW,2013-08-21 10:43:00,
2013-08-21 12:48:00,83.8,63.3,30.02,East,90,12.7,16.7,50,0.00,,,0.00,WUHU216HW,2013-08-21 10:48:00,
2013-08-21 12:53:00,83.8,62.6,30.02,SE,129,10.1,16.7,49,0.00,,,0.00,WUHU216HW,2013-08-21 10:53:00,
2013-08-21 12:58:00,83.4,63.4,30.02,SE,129,8.0,19.0,51,0.00,,,0.00,WUHU216HW,2013-08-21 10:58:00,
2013-08-21 13:03:00,83.6,63.6,30.02,ENE,68,11.8,19.0,51,0.00,,,0.00,WUHU216HW,2013-08-21 11:03:00,
2013-08-21 13:08:00,84.2,63.6,30.02,East,99,9.0,13.1,50,0.00,,,0.00,WUHU216HW,2013-08-21 11:08:00,
2013-08-21 13:13:00,84.5,64.0,30.02,ENE,68,12.0,13.1,50,0.00,,,0.00,WUHU216HW,2013-08-21 11:13:00,
2013-08-21 13:18:00,84.3,63.8,30.02,ESE,113,3.8,12.3,50,0.00,,,0.00,WUHU216HW,2013-08-21 11:18:00,
2013-08-21 13:23:00,84.2,63.6,30.02,ENE,74,12.6,16.1,50,0.00,,,0.00,WUHU216HW,2013-08-21 11:23:00,
2013-08-21 13:28:00,84.7,64.1,30.02,East,90,11.4,16.1,50,0.00,,,0.00,WUHU216HW,2013-08-21 11:28:00,
2013-08-21 13:33:00,85.1,63.2,30.02,East,94,9.6,11.4,48,0.00,,,0.00,WUHU216HW,2013-08-21 11:33:00,
2013-08-21 13:38:00,84.9,63.8,30.02,SE,126,8.7,13.6,49,0.00,,,0.00,WUHU216HW,2013-08-21 11:38:00,
2013-08-21 13:43:00,84.5,63.3,30.02,ENE,68,9.3,16.5,49,0.00,,,0.00,WUHU216HW,2013-08-21 11:43:00,
2013-08-21 13:48:00,84.5,62.7,30.02,East,87,9.7,16.5,48,0.00,,,0.00,WUHU216HW,2013-08-21 11:48:00,
2013-08-21 13:53:00,84.7,62.9,30.02,East,85,6.3,14.5,48,0.00,,,0.00,WUHU216HW,2013-08-21 11:53:00,
2013-08-21 13:58:00,85.4,63.0,30.02,SSW,203,4.9,10.7,48,0.00,,,0.00,WUHU216HW,2013-08-21 11:58:00,
2013-08-21 14:03:00,86.0,62.7,30.02,ESE,113,8.9,10.7,46,0.00,,,0.00,WUHU216HW,2013-08-21 12:03:00,
2013-08-21 14:08:00,86.0,62.7,30.02,SE,135,4.2,9.3,46,0.00,,,0.00,WUHU216HW,2013-08-21 12:08:00,
2013-08-21 14:13:00,86.3,62.4,30.02,East,84,8.2,16.7,45,0.00,,,0.00,WUHU216HW,2013-08-21 12:13:00,
2013-08-21 14:18:00,86.5,62.6,30.02,ENE,68,14.8,18.3,45,0.00,,,0.00,WUHU216HW,2013-08-21 12:18:00,
2013-08-21 14:23:00,85.8,61.9,30.02,ENE,72,11.6,18.3,45,0.00,,,0.00,WUHU216HW,2013-08-21 12:23:00,
2013-08-21 14:28:00,86.1,62.3,30.01,ENE,68,8.0,16.5,45,0.00,,,0.00,WUHU216HW,2013-08-21 12:28:00,
2013-08-21 14:33:00,86.3,61.8,30.01,SSW,203,10.7,14.3,44,0.00,,,0.00,WUHU216HW,2013-08-21 12:33:00,
2013-08-21 14:38:00,86.1,62.3,30.01,ENE,68,9.8,14.0,45,0.00,,,0.00,WUHU216HW,2013-08-21 12:38:00,
2013-08-21 14:43:00,86.1,62.3,30.01,East,90,8.5,14.0,45,0.00,,,0.00,WUHU216HW,2013-08-21 12:43:00,
2013-08-21 14:48:00,86.5,62.6,30.01,NNW,338,5.8,14.0,45,0.00,,,0.00,WUHU216HW,2013-08-21 12:48:00,
2013-08-21 14:53:00,86.7,62.1,30.01,ESE,113,11.4,13.1,44,0.00,,,0.00,WUHU216HW,2013-08-21 12:53:00,
2013-08-21 14:58:00,86.7,61.5,30.00,NNE,27,7.0,14.5,43,0.00,,,0.00,WUHU216HW,2013-08-21 12:58:00,
2013-08-21 15:03:00,87.2,62.6,30.00,East,90,12.9,14.5,44,0.00,,,0.00,WUHU216HW,2013-08-21 13:03:00,
2013-08-21 15:08:00,86.7,62.1,30.00,ENE,68,6.7,12.9,44,0.00,,,0.00,WUHU216HW,2013-08-21 13:08:00,
2013-08-21 15:13:00,86.5,62.6,30.01,ENE,68,14.9,14.9,45,0.00,,,0.00,WUHU216HW,2013-08-21 13:13:00,
2013-08-21 15:18:00,86.1,62.3,30.00,NE,45,9.4,14.9,45,0.00,,,0.00,WUHU216HW,2013-08-21 13:18:00,
2013-08-21 15:23:00,86.5,62.6,30.01,ENE,68,11.8,11.8,45,0.00,,,0.00,WUHU216HW,2013-08-21 13:23:00,
2013-08-21 15:28:00,86.7,62.7,30.01,ESE,113,10.2,11.8,45,0.00,,,0.00,WUHU216HW,2013-08-21 13:28:00,
2013-08-21 15:33:00,87.0,61.8,30.01,ESE,113,10.2,12.3,43,0.00,,,0.00,WUHU216HW,2013-08-21 13:33:00,
2013-08-21 15:38:00,86.9,61.7,30.01,East,90,7.4,15.8,43,0.00,,,0.00,WUHU216HW,2013-08-21 13:38:00,
2013-08-21 15:43:00,86.9,62.3,30.01,East,95,8.3,15.8,44,0.00,,,0.00,WUHU216HW,2013-08-21 13:43:00,
2013-08-21 15:51:00,86.5,62.0,30.00,East,90,14.7,14.9,44,0.00,,,0.00,WUHU216HW,2013-08-21 13:51:00,
2013-08-21 15:56:00,85.8,61.9,30.01,ESE,111,8.6,15.6,45,0.00,,,0.00,WUHU216HW,2013-08-21 13:56:00,
2013-08-21 16:01:00,85.8,61.3,30.00,East,90,6.4,13.4,44,0.00,,,0.00,WUHU216HW,2013-08-21 14:01:00,
2013-08-21 16:06:00,85.6,61.8,30.00,ENE,68,9.8,11.8,45,0.00,,,0.00,WUHU216HW,2013-08-21 14:06:00,
2013-08-21 16:12:00,85.6,61.8,30.00,SE,131,7.3,12.9,45,0.00,,,0.00,WUHU216HW,2013-08-21 14:12:00,
2013-08-21 16:17:00,85.8,61.9,30.00,East,90,6.4,15.4,45,0.00,,,0.00,WUHU216HW,2013-08-21 14:17:00,
2013-08-21 16:22:00,85.8,61.9,30.00,East,90,12.0,15.4,45,0.00,,,0.00,WUHU216HW,2013-08-21 14:22:00,
2013-08-21 16:27:00,85.8,61.9,30.00,ESE,113,4.4,12.0,45,0.00,,,0.00,WUHU216HW,2013-08-21 14:27:00,
2013-08-21 16:32:00,85.6,61.8,30.00,ENE,60,6.8,12.9,45,0.00,,,0.00,WUHU216HW,2013-08-21 14:32:00,
2013-08-21 16:37:00,85.4,61.6,30.00,ENE,68,11.1,12.9,45,0.00,,,0.00,WUHU216HW,2013-08-21 14:37:00,
2013-08-21 16:42:00,85.6,61.8,30.00,NE,53,4.8,14.3,45,0.00,,,0.00,WUHU216HW,2013-08-21 14:42:00,
2013-08-21 16:47:00,85.6,62.4,30.00,ENE,74,5.6,16.3,46,0.00,,,0.00,WUHU216HW,2013-08-21 14:47:00,
2013-08-21 16:52:00,85.6,61.8,29.99,East,94,11.2,16.3,45,0.00,,,0.00,WUHU216HW,2013-08-21 14:52:00,
2013-08-21 16:57:00,85.6,61.8,29.99,NE,40,15.9,25.0,45,0.00,,,0.00,WUHU216HW,2013-08-21 14:57:00,
2013-08-21 17:02:00,85.1,61.9,29.99,East,81,7.6,25.0,46,0.00,,,0.00,WUHU216HW,2013-08-21 15:02:00,
2013-08-21 17:07:00,85.2,61.3,29.99,East,90,9.8,17.4,45,0.00,,,0.00,WUHU216HW,2013-08-21 15:07:00,
2013-08-21 17:12:00,84.9,61.1,29.99,East,82,7.7,18.5,45,0.00,,,0.00,WUHU216HW,2013-08-21 15:12:00,
2013-08-21 17:17:00,84.9,61.1,29.99,ENE,68,11.3,18.5,45,0.00,,,0.00,WUHU216HW,2013-08-21 15:17:00,
2013-08-21 17:22:00,84.7,61.0,29.99,East,90,7.8,17.8,45,0.00,,,0.00,WUHU216HW,2013-08-21 15:22:00,
2013-08-21 17:27:00,84.7,61.0,29.99,ENE,68,8.5,10.7,45,0.00,,,0.00,WUHU216HW,2013-08-21 15:27:00,
2013-08-21 17:32:00,84.7,61.6,29.99,ENE,65,10.6,13.1,46,0.00,,,0.00,WUHU216HW,2013-08-21 15:32:00,
2013-08-21 17:37:00,84.7,61.6,30.00,East,94,10.4,15.8,46,0.00,,,0.00,WUHU216HW,2013-08-21 15:37:00,
2013-08-21 17:42:00,84.7,61.6,29.99,East,86,8.5,15.8,46,0.00,,,0.00,WUHU216HW,2013-08-21 15:42:00,
2013-08-21 17:47:00,84.3,61.3,29.99,NNE,23,6.8,12.9,46,0.00,,,0.00,WUHU216HW,2013-08-21 15:47:00,
2013-08-21 17:52:00,84.0,62.2,30.00,ENE,68,7.3,12.0,48,0.00,,,0.00,WUHU216HW,2013-08-21 15:52:00,
2013-08-21 17:57:00,84.0,62.2,30.00,ENE,68,10.9,11.8,48,0.00,,,0.00,WUHU216HW,2013-08-21 15:57:00,
2013-08-21 18:02:00,83.8,62.0,30.00,East,83,12.2,16.7,48,0.00,,,0.00,WUHU216HW,2013-08-21 16:02:00,
2013-08-21 18:07:00,83.4,62.5,30.00,ENE,68,7.4,16.7,49,0.00,,,0.00,WUHU216HW,2013-08-21 16:07:00,
2013-08-21 18:12:00,83.3,62.6,30.00,East,90,12.3,12.3,49,0.00,,,0.00,WUHU216HW,2013-08-21 16:12:00,
2013-08-21 18:17:00,82.7,62.2,30.00,ESE,102,9.9,14.9,50,0.00,,,0.00,WUHU216HW,2013-08-21 16:17:00,
2013-08-21 18:22:00,82.5,62.5,30.00,ENE,68,3.5,14.9,51,0.00,,,0.00,WUHU216HW,2013-08-21 16:22:00,
2013-08-21 18:27:00,82.5,62.5,30.00,East,90,4.0,6.9,51,0.00,,,0.00,WUHU216HW,2013-08-21 16:27:00,
2013-08-21 18:32:00,82.2,62.2,30.00,ENE,68,4.4,10.2,51,0.00,,,0.00,WUHU216HW,2013-08-21 16:32:00,
2013-08-21 18:37:00,82.0,62.0,30.00,ENE,68,8.8,10.5,51,0.00,,,0.00,WUHU216HW,2013-08-21 16:37:00,
2013-08-21 18:42:00,82.0,61.5,30.01,East,90,9.3,12.5,50,0.00,,,0.00,WUHU216HW,2013-08-21 16:42:00,
2013-08-21 18:47:00,82.0,61.5,30.01,NE,45,4.4,12.5,50,0.00,,,0.00,WUHU216HW,2013-08-21 16:47:00,
2013-08-21 18:52:00,81.6,61.2,30.01,East,87,6.3,11.1,50,0.00,,,0.00,WUHU216HW,2013-08-21 16:52:00,
2013-08-21 18:57:00,81.5,61.5,30.01,ENE,68,5.8,11.1,51,0.00,,,0.00,WUHU216HW,2013-08-21 16:57:00,
2013-08-21 19:02:00,81.3,61.4,30.01,SSE,158,5.5,10.2,51,0.00,,,0.00,WUHU216HW,2013-08-21 17:02:00,
2013-08-21 19:08:00,81.3,61.9,30.01,ESE,102,5.1,12.7,52,0.00,,,0.00,WUHU216HW,2013-08-21 17:08:00,
2013-08-21 19:13:00,80.9,61.6,30.02,East,94,8.9,12.9,52,0.00,,,0.00,WUHU216HW,2013-08-21 17:13:00,
2013-08-21 19:18:00,80.9,61.6,30.02,ESE,113,4.6,12.9,52,0.00,,,0.00,WUHU216HW,2013-08-21 17:18:00,
2013-08-21 19:23:00,80.7,61.4,30.02,NE,45,6.4,10.9,52,0.00,,,0.00,WUHU216HW,2013-08-21 17:23:00,
2013-08-21 19:28:00,80.6,61.3,30.02,ESE,118,5.9,12.3,52,0.00,,,0.00,WUHU216HW,2013-08-21 17:28:00,
2013-08-21 19:33:00,80.4,61.1,30.02,SE,135,12.3,12.3,52,0.00,,,0.00,WUHU216HW,2013-08-21 17:33:00,
2013-08-21 19:38:00,80.2,60.4,30.02,ENE,68,12.4,14.3,51,0.00,,,0.00,WUHU216HW,2013-08-21 17:38:00,
2013-08-21 19:43:00,80.2,60.4,30.02,East,90,15.2,15.2,51,0.00,,,0.00,WUHU216HW,2013-08-21 17:43:00,
2013-08-21 19:48:00,80.0,59.7,30.03,East,90,8.9,17.2,50,0.00,,,0.00,WUHU216HW,2013-08-21 17:48:00,
2013-08-21 19:53:00,79.8,59.6,30.03,East,100,7.7,17.2,50,0.00,,,0.00,WUHU216HW,2013-08-21 17:53:00,
2013-08-21 19:58:00,79.7,59.4,30.04,SE,135,12.0,15.6,50,0.00,,,0.00,WUHU216HW,2013-08-21 17:58:00,
2013-08-21 20:03:00,79.5,59.2,30.04,SE,124,11.3,16.3,50,0.00,,,0.00,WUHU216HW,2013-08-21 18:03:00,
2013-08-21 20:08:00,79.5,59.2,30.04,East,99,13.4,21.0,50,0.00,,,0.00,WUHU216HW,2013-08-21 18:08:00,
2013-08-21 20:13:00,79.3,59.1,30.04,SE,135,9.1,21.0,50,0.00,,,0.00,WUHU216HW,2013-08-21 18:13:00,
2013-08-21 20:18:00,79.1,58.9,30.04,SSE,158,9.8,15.4,50,0.00,,,0.00,WUHU216HW,2013-08-21 18:18:00,
2013-08-21 20:24:00,78.9,59.3,30.04,East,99,13.5,16.5,51,0.00,,,0.00,WUHU216HW,2013-08-21 18:24:00,
2013-08-21 20:29:00,78.6,58.9,30.04,ESE,105,13.4,17.4,51,0.00,,,0.00,WUHU216HW,2013-08-21 18:29:00,
2013-08-21 20:34:00,78.6,58.9,30.04,SE,135,9.1,17.4,51,0.00,,,0.00,WUHU216HW,2013-08-21 18:34:00,
2013-08-21 20:39:00,78.6,58.9,30.04,East,90,9.1,12.3,51,0.00,,,0.00,WUHU216HW,2013-08-21 18:39:00,
2013-08-21 20:44:00,78.4,58.8,30.04,SE,125,7.4,12.3,51,0.00,,,0.00,WUHU216HW,2013-08-21 18:44:00,
2013-08-21 20:49:00,78.4,58.8,30.04,ENE,68,10.9,18.1,51,0.00,,,0.00,WUHU216HW,2013-08-21 18:49:00,
2013-08-21 20:54:00,78.2,59.1,30.04,ESE,113,9.6,18.1,52,0.00,,,0.00,WUHU216HW,2013-08-21 18:54:00,
2013-08-21 20:59:00,78.2,59.1,30.04,ESE,113,17.4,17.4,52,0.00,,,0.00,WUHU216HW,2013-08-21 18:59:00,
2013-08-21 21:04:00,78.0,58.4,30.04,NE,45,8.9,20.1,51,0.00,,,0.00,WUHU216HW,2013-08-21 19:04:00,
2013-08-21 21:09:00,78.0,59.0,30.04,SSE,158,10.5,20.1,52,0.00,,,0.00,WUHU216HW,2013-08-21 19:09:00,
2013-08-21 21:14:00,78.4,58.8,30.04,East,90,12.9,12.9,51,0.00,,,0.00,WUHU216HW,2013-08-21 19:14:00,
2013-08-21 21:19:00,78.4,58.8,30.04,South,169,6.8,18.3,51,0.00,,,0.00,WUHU216HW,2013-08-21 19:19:00,
2013-08-21 21:24:00,78.4,58.8,30.05,ESE,113,16.3,18.3,51,0.00,,,0.00,WUHU216HW,2013-08-21 19:24:00,
2013-08-21 21:29:00,78.4,58.6,30.05,ESE,113,13.1,18.1,51,0.00,,,0.00,WUHU216HW,2013-08-21 19:29:00,
2013-08-21 21:34:00,78.2,58.6,30.05,South,189,8.0,15.8,51,0.00,,,0.00,WUHU216HW,2013-08-21 19:34:00,
2013-08-21 21:39:00,78.0,58.4,30.05,SE,135,19.4,19.4,51,0.00,,,0.00,WUHU216HW,2013-08-21 19:39:00,
2013-08-21 21:44:00,77.9,58.8,30.05,ESE,113,7.6,19.4,52,0.00,,,0.00,WUHU216HW,2013-08-21 19:44:00,
2013-08-21 21:49:00,77.7,58.6,30.05,SE,135,9.8,14.5,52,0.00,,,0.00,WUHU216HW,2013-08-21 19:49:00,
2013-08-21 21:54:00,77.5,58.5,30.05,SE,129,7.2,11.6,52,0.00,,,0.00,WUHU216HW,2013-08-21 19:54:00,
2013-08-21 21:59:00,77.7,58.6,30.05,ESE,113,10.0,11.6,52,0.00,,,0.00,WUHU216HW,2013-08-21 19:59:00,
2013-08-21 22:04:00,77.9,58.8,30.05,SE,127,5.1,10.7,52,0.00,,,0.00,WUHU216HW,2013-08-21 20:04:00,
2013-08-21 22:09:00,77.9,58.3,30.05,ESE,113,9.8,13.6,51,0.00,,,0.00,WUHU216HW,2013-08-21 20:09:00,
2013-08-21 22:16:00,77.9,58.3,30.05,ESE,113,15.6,16.1,51,0.00,,,0.00,WUHU216HW,2013-08-21 20:16:00,
2013-08-21 22:21:00,78.0,58.4,30.05,SSE,158,14.3,16.1,51,0.00,,,0.00,WUHU216HW,2013-08-21 20:21:00,
2013-08-21 22:26:00,78.0,57.9,30.05,SSE,158,3.5,14.3,50,0.00,,,0.00,WUHU216HW,2013-08-21 20:26:00,
2013-08-21 22:31:00,78.0,57.9,30.05,SE,135,2.9,10.7,50,0.00,,,0.00,WUHU216HW,2013-08-21 20:31:00,
2013-08-21 22:40:00,78.0,58.4,30.06,ESE,105,4.2,12.5,51,0.00,,,0.00,WUHU216HW,2013-08-21 20:40:00,
2013-08-21 22:45:00,77.9,58.3,30.05,SSE,158,9.8,12.5,51,0.00,,,0.00,WUHU216HW,2013-08-21 20:45:00,
2013-08-21 22:50:00,77.9,57.8,30.06,SE,144,1.5,9.8,50,0.00,,,0.00,WUHU216HW,2013-08-21 20:50:00,
2013-08-21 22:55:00,77.9,58.3,30.06,ENE,68,0.8,5.1,51,0.00,,,0.00,WUHU216HW,2013-08-21 20:55:00,
2013-08-21 23:00:00,77.9,57.8,30.06,SW,225,0.0,3.3,51,0.00,,,0.00,WUHU216HW,2013-08-21 21:00:00,
2013-08-21 23:05:00,77.5,58.5,30.06,SW,225,0.0,3.3,52,0.00,,,0.00,WUHU216HW,2013-08-21 21:05:00,
2013-08-21 23:10:00,77.1,58.6,30.06,South,180,0.0,3.8,53,0.00,,,0.00,WUHU216HW,2013-08-21 21:10:00,
2013-08-21 23:15:00,76.8,58.8,30.06,SSE,158,1.1,3.8,54,0.00,,,0.00,WUHU216HW,2013-08-21 21:15:00,
2013-08-21 23:20:00,76.4,58.5,30.05,SW,225,0.0,2.2,54,0.00,,,0.00,WUHU216HW,2013-08-21 21:20:00,
2013-08-21 23:25:00,76.2,58.8,30.06,NE,45,0.0,0.0,55,0.00,,,0.00,WUHU216HW,2013-08-21 21:25:00,
2013-08-21 23:30:00,75.7,58.9,30.06,SE,135,2.0,2.0,56,0.00,,,0.00,WUHU216HW,2013-08-21 21:30:00,
2013-08-21 23:35:00,75.5,58.7,30.06,South,190,2.4,3.1,56,0.00,,,0.00,WUHU216HW,2013-08-21 21:35:00,
2013-08-21 23:40:00,75.7,58.9,30.06,North,0,0.0,3.1,56,0.00,,,0.00,WUHU216HW,2013-08-21 21:40:00,
2013-08-21 23:45:00,75.5,58.7,30.06,SW,235,1.9,2.9,56,0.00,,,0.00,WUHU216HW,2013-08-21 21:45:00,
2013-08-21 23:50:00,75.3,59.0,30.06,ESE,113,2.9,2.9,57,0.00,,,0.00,WUHU216HW,2013-08-21 21:50:00,
2013-08-21 23:55:00,74.8,58.5,30.05,ESE,113,0.0,2.9,57,0.00,,,0.00,WUHU216HW,2013-08-21 21:55:00,